Weather History for Abingdon, VA

Change the Weather History Date:

Wednesday, November 27, 2013

  Actual Average (KTRI) Record (KTRI)
Temperature  
Mean Temperature 31 °F 43 °F  
Max Temperature 38 °F 54 °F 77 °F (1990)
Min Temperature 23 °F 32 °F 15 °F (1977)
Degree Days  
Heating Degree Days 34 22  
Month to date heating degree days 482  
Since 1 July heating degree days 817  
Cooling Degree Days 0 0  
Month to date cooling degree days 0  
Year to date cooling degree days 980  
Moisture  
Dew Point 26 °F    
Average Humidity 86    
Maximum Humidity 100    
Minimum Humidity 67    
Precipitation  
Precipitation 0.10 in 0.11 in 1.38 in (1959)
Month to date precipitation 2.74  
Year to date precipitation 37.28  
Snow  
Snow 0.00 in 0.00 in - ()
Month to date snowfall 0.1  
Since 1 July snowfall 0.2  
Since 1 September snowfall 0.2  
Snow Depth -    
Sea Level Pressure  
Sea Level Pressure 29.90 in    
Wind  
Wind Speed 8 mph (NNW)    
Max Wind Speed 16 mph    
Max Gust Speed 24 mph    
Visibility 6 miles    
Events Rain , Snow    
T = Trace of Precipitation, MM = Missing Value Source: NWS Daily Summary

Daily Weather History Graph

Daily Weather History Graph

Search for Another Location

Airport:

Trip Planner

Search our weather history database for the weather conditions in past years. The results will help you decide how hot, cold, wet, or windy it might be!

Date:

Astronomy

Nov. 27, 2013 Rise Set
Actual Time 7:18 AM EST 5:13 PM EST
Civil Twilight 6:50 AM EST 5:41 PM EST
Nautical Twilight 6:18 AM EST 6:13 PM EST
Astronomical Twilight 5:47 AM EST 6:44 PM EST
Moon 1:27 AM EST (11/27) 1:42 PM EST (11/27)
Length of Visible Light 10h 51m
Length of Day
9h 54m
Waning Crescent, 32% of the Moon is Illuminated
Nov 27
Waning Crescent
Dec 2
New
Dec 9
First Quarter
Dec 17
Full
Dec 25
Last Quarter

Hourly Weather History & Observations

Time (EST) Temp. Windchill Dew Point Humidity Pressure Visibility Wind Dir Wind Speed Gust Speed Precip Events Conditions
12:15 AM 38.8 °F 34.6 °F 38.1 °F 97% 29.71 in 10.0 mi NNW 5.8 mph - N/A   Light Drizzle
12:35 AM 38.5 °F 35.0 °F 37.9 °F 98% 29.72 in 5.0 mi NW 4.6 mph - 0.01 in Rain Rain
12:55 AM 38.3 °F 35.9 °F 37.8 °F 98% 29.70 in 7.0 mi North 3.5 mph - 0.03 in Rain Light Rain
1:15 AM 37.9 °F 30.9 °F 37.4 °F 98% 29.71 in 10.0 mi NNW 10.4 mph - N/A   Light Drizzle
1:35 AM 36.9 °F 33.1 °F 35.4 °F 95% 29.71 in 10.0 mi North 4.6 mph 16.1 mph N/A Rain Light Rain
1:55 AM 35.8 °F 29.4 °F 34.9 °F 97% 29.73 in 2.5 mi NNW 8.1 mph - 0.01 in Snow Light Snow
2:15 AM 34.9 °F 28.3 °F 34.7 °F 99% 29.72 in 2.0 mi North 8.1 mph - 0.02 in Snow Light Snow
2:35 AM 34.3 °F 29.2 °F 34.3 °F 100% 29.71 in 1.8 mi North 5.8 mph 9.2 mph 0.03 in Snow Light Snow
2:55 AM 34.0 °F 27.2 °F 34.0 °F 100% 29.73 in 3.0 mi North 8.1 mph - 0.04 in Snow Light Snow
3:15 AM 33.8 °F 25.8 °F 32.7 °F 96% 29.72 in 2.0 mi North 10.4 mph - N/A Snow Light Snow
3:35 AM 33.4 °F 26.6 °F 32.9 °F 98% 29.73 in 2.5 mi North 8.1 mph - 0.01 in Snow Light Snow
3:55 AM 33.1 °F 24.9 °F 32.4 °F 97% 29.73 in 2.5 mi North 10.4 mph - 0.01 in Snow Light Snow
4:15 AM 32.7 °F 25.0 °F 32.0 °F 97% 29.73 in 3.0 mi North 9.2 mph - N/A Snow Light Snow
4:35 AM 32.4 °F 24.6 °F 31.6 °F 97% 29.73 in 3.0 mi North 9.2 mph - N/A Snow Light Snow
4:55 AM 32.4 °F 26.9 °F 31.1 °F 95% 29.73 in 3.0 mi NNW 5.8 mph - N/A Snow Light Snow
5:15 AM 32.4 °F 27.9 °F 31.1 °F 95% 29.74 in 4.0 mi North 4.6 mph 16.1 mph N/A Snow Light Snow
5:35 AM 32.2 °F 23.2 °F 30.7 °F 94% 29.75 in 4.0 mi North 11.5 mph 19.6 mph N/A Snow Light Snow
5:55 AM 32.0 °F 23.6 °F 30.0 °F 92% 29.76 in 3.0 mi North 10.4 mph 16.1 mph N/A Snow Light Snow
6:15 AM 32.0 °F 24.8 °F 29.8 °F 92% 29.76 in 2.5 mi North 8.1 mph 18.4 mph N/A Snow Light Snow
6:35 AM 31.6 °F 23.1 °F 29.3 °F 91% 29.76 in 2.5 mi NNW 10.4 mph - N/A Snow Light Snow
6:55 AM 31.1 °F 25.4 °F 30.2 °F 96% 29.77 in 1.2 mi North 5.8 mph - N/A Snow Light Snow
7:15 AM 30.6 °F 23.1 °F 30.2 °F 99% 29.78 in 1.2 mi NNW 8.1 mph - N/A Snow Snow
7:35 AM 30.6 °F 24.7 °F 30.0 °F 98% 29.79 in 0.8 mi North 5.8 mph - N/A Snow Light Snow
7:55 AM 30.9 °F 24.3 °F 29.3 °F 94% 29.80 in 1.5 mi NNW 6.9 mph - N/A Snow Light Snow
8:15 AM 31.3 °F 24.7 °F 28.9 °F 91% 29.80 in 3.0 mi North 6.9 mph - N/A Snow Light Snow
8:35 AM 31.5 °F 24.2 °F 28.4 °F 88% 29.81 in 4.0 mi North 8.1 mph 20.7 mph N/A Snow Light Snow
8:55 AM 31.1 °F 23.1 °F 28.6 °F 90% 29.81 in 1.8 mi North 9.2 mph - N/A Snow Light Snow
9:15 AM 31.5 °F 23.5 °F 28.8 °F 90% 29.81 in 4.0 mi NNW 9.2 mph - N/A Snow Light Snow
9:35 AM 31.6 °F 22.6 °F 27.5 °F 85% 29.82 in 7.0 mi North 11.5 mph 19.6 mph N/A   Overcast
9:55 AM 31.1 °F 23.1 °F 28.2 °F 89% 29.82 in 7.0 mi North 9.2 mph - N/A   Overcast
10:15 AM 30.9 °F 23.5 °F 28.2 °F 90% 29.82 in 5.0 mi NNW 8.1 mph - N/A Snow Light Snow
10:35 AM 30.7 °F 23.3 °F 28.6 °F 92% 29.82 in 3.0 mi North 8.1 mph - 0.01 in Snow Light Snow
10:55 AM 30.9 °F 24.3 °F 28.0 °F 89% 29.82 in 5.0 mi NW 6.9 mph - 0.01 in Snow Light Snow
11:15 AM 31.5 °F 22.9 °F 27.0 °F 83% 29.82 in 7.0 mi NNW 10.4 mph 16.1 mph N/A Snow Light Snow
11:35 AM 31.1 °F 22.4 °F 27.3 °F 86% 29.82 in 7.0 mi NNW 10.4 mph 18.4 mph N/A Snow Light Snow
11:55 AM 30.9 °F 20.2 °F 27.5 °F 87% 29.83 in 3.0 mi NNW 15.0 mph 19.6 mph N/A Snow Light Snow
12:15 PM 30.0 °F 19.1 °F 27.1 °F 89% 29.83 in 2.0 mi North 15.0 mph 20.7 mph N/A Snow Light Snow
12:35 PM 30.2 °F 20.2 °F 24.6 °F 80% 29.84 in 10.0 mi NNW 12.7 mph 24.2 mph N/A Snow Light Snow
12:55 PM 29.8 °F 21.5 °F 23.9 °F 79% 29.85 in 10.0 mi NNW 9.2 mph 23.0 mph N/A Snow Light Snow
1:15 PM 29.8 °F 19.3 °F 24.4 °F 80% 29.85 in 10.0 mi NNW 13.8 mph 18.4 mph N/A Snow Light Snow
1:35 PM 29.5 °F 19.9 °F 23.9 °F 80% 29.85 in 7.0 mi NNW 11.5 mph 16.1 mph N/A Snow Light Snow
1:55 PM 28.4 °F 18.0 °F 24.8 °F 86% 29.87 in 1.5 mi North 12.7 mph 23.0 mph N/A Snow Light Snow
2:15 PM 28.6 °F 19.3 °F 22.1 °F 77% 29.88 in 7.0 mi NW 10.4 mph 19.6 mph N/A Snow Light Snow
2:35 PM 28.4 °F 20.4 °F 22.1 °F 77% 29.89 in 5.0 mi NW 8.1 mph 18.4 mph N/A Snow Light Snow
2:55 PM 28.4 °F 18.0 °F 21.0 °F 74% 29.91 in 7.0 mi NW 12.7 mph 20.7 mph N/A Snow Light Snow
3:15 PM 28.4 °F 16.6 °F 19.4 °F 69% 29.92 in 10.0 mi NW 16.1 mph 24.2 mph N/A   Overcast
3:35 PM 28.4 °F 18.0 °F 19.2 °F 69% 29.94 in 10.0 mi NNW 12.7 mph 17.3 mph N/A   Overcast
3:55 PM 28.0 °F 17.0 °F 20.3 °F 73% 29.96 in 7.0 mi NNW 13.8 mph 20.7 mph N/A Snow Light Snow
4:15 PM 27.3 °F 17.1 °F 21.0 °F 77% 29.98 in 5.0 mi North 11.5 mph 19.6 mph N/A Snow Light Snow
4:35 PM 27.1 °F 16.9 °F 20.5 °F 76% 29.99 in 7.0 mi NNW 11.5 mph 20.7 mph N/A Snow Light Snow
4:55 PM 27.1 °F 16.4 °F 20.5 °F 76% 30.00 in 10.0 mi NW 12.7 mph 18.4 mph N/A Snow Light Snow
5:15 PM 27.0 °F 20.5 °F 21.2 °F 79% 30.02 in 3.0 mi NW 5.8 mph 18.4 mph N/A Snow Light Snow
5:35 PM 26.2 °F 19.6 °F 23.0 °F 88% 30.03 in 2.5 mi NNW 5.8 mph - N/A Snow Light Snow
5:55 PM 26.1 °F 19.4 °F 23.0 °F 88% 30.04 in 5.0 mi North 5.8 mph - N/A Snow Light Snow
6:15 PM 26.4 °F 16.6 °F 21.9 °F 83% 30.05 in 4.0 mi NNW 10.4 mph 17.3 mph N/A Snow Light Snow
6:35 PM 25.7 °F 19.0 °F 22.8 °F 89% 30.06 in 4.0 mi NW 5.8 mph - N/A Snow Light Snow
6:55 PM 25.7 °F 19.0 °F 20.3 °F 80% 30.08 in 10.0 mi NW 5.8 mph - N/A   Overcast
7:15 PM 25.7 °F 17.1 °F 20.3 °F 80% 30.09 in 10.0 mi NW 8.1 mph - N/A   Overcast
7:35 PM 25.7 °F 15.1 °F 20.7 °F 81% 30.11 in 4.0 mi NW 11.5 mph 18.4 mph N/A Snow Light Snow
7:55 PM 24.8 °F 16.9 °F 21.0 °F 86% 30.12 in 5.0 mi NW 6.9 mph 21.9 mph N/A Snow Light Snow
8:15 PM 24.8 °F 13.4 °F 19.9 °F 82% 30.12 in 10.0 mi NW 12.7 mph 19.6 mph N/A Snow Light Snow
8:35 PM 25.5 °F 16.9 °F 19.0 °F 76% 30.14 in 7.0 mi NW 8.1 mph - N/A Snow Light Snow
8:55 PM 24.8 °F 19.1 °F 20.3 °F 83% 30.15 in 10.0 mi NNW 4.6 mph - N/A Snow Light Snow
9:15 PM 24.8 °F 16.1 °F 20.3 °F 83% 30.15 in 4.0 mi NNW 8.1 mph - N/A Snow Light Snow
9:35 PM 24.6 °F 16.7 °F 20.1 °F 83% 30.16 in 7.0 mi NNW 6.9 mph - N/A Snow Light Snow
9:55 PM 24.8 °F 15.3 °F 20.3 °F 83% 30.16 in 10.0 mi North 9.2 mph - N/A Snow Light Snow
10:15 PM 24.8 °F 16.1 °F 20.1 °F 82% 30.17 in 10.0 mi NNW 8.1 mph - N/A Snow Light Snow
10:35 PM 24.8 °F 15.3 °F 17.8 °F 75% 30.18 in 10.0 mi NW 9.2 mph - N/A   Overcast
10:55 PM 24.4 °F 14.2 °F 17.6 °F 75% 30.19 in 7.0 mi NW 10.4 mph - N/A Snow Light Snow
11:15 PM 24.4 °F 16.5 °F 16.0 °F 70% 30.20 in 10.0 mi NNW 6.9 mph 16.1 mph N/A   Overcast
11:35 PM 24.3 °F 17.3 °F 14.7 °F 67% 30.21 in 10.0 mi NW 5.8 mph - N/A   Overcast
11:55 PM 23.9 °F 15.0 °F 14.9 °F 69% 30.21 in 10.0 mi NW 8.1 mph - N/A Snow Light Snow